{"data":{"norad_id":60492,"intl_designator":"2024-149AA","name":"FLOCK 4BE-17","alt_names":[],"object_type":"PAYLOAD","status":"ACTIVE","operator":null,"country":"US","launch_date":"2024-08-16","launch_site_code":"AFWTR","launch_vehicle":null,"mission":null,"orbit_class":"UNKNOWN","rcs_meters":null,"size_class":null,"mass_kg":null,"dimensions":null,"purposes":["earth_obs"],"wikipedia_slug":null,"has_3d_model":false,"image_url":null,"decayed_at":null,"tle_current":{"epoch":"2026-09-18T23:30:36.893088Z","epoch_age_seconds":145901,"freshness":"FRESH","line1":"1 60492U 24149AA  26261.97959367  .00026280  00000+0  60044-3 0  9997","line2":"2 60492  97.3712 346.2389 0001774 271.8649  88.2395 15.42829655116700","mean_motion":15.42829655,"eccentricity":0.0001774,"inclination_deg":97.3712,"raan_deg":346.2389,"arg_perigee_deg":271.8649,"mean_anomaly_deg":88.2395,"bstar":0.00060044,"rev_number":11670,"period_min":93.334996208638,"perigee_km":436.55353535164,"apogee_km":438.97181655667,"semimajor_km":6815.8996759542,"source":"CELESTRAK","updated_at":"2026-09-20T09:00:34.712998Z"}}}